[Iaude] MPEC G09: 2024 FZ3 [a=2.66,e=0.61,i=5.8,H=25.6]
    mpec at cfa.harvard.edu 
    mpec at cfa.harvard.edu
       
    Tue Apr  2 20:43:35 EDT 2024
    
    
  
M.P.E.C. 2024-G09                                 Issued 2024 April 3, 00:42 UT
     The Minor Planet Electronic Circulars contain information on unusual
         minor planets, routine data on comets and natural satellites,
         and occasional editorial announcements.  They are published
    on behalf of Division F of the International Astronomical Union by the
          Minor Planet Center, Smithsonian Astrophysical Observatory,
                          Cambridge, MA 02138, U.S.A.
			  
             Prepared using the Tamkin Foundation Computer Network
                              MPC at CFA.HARVARD.EDU
            URL https://www.minorplanetcenter.net/    ISSN 1523-6714
                                    2024 FZ3                                    
Observations:
     K24F03Z  C2024 03 18.36236 10 40 24.94 +06 08 37.8          23.4 GVEG009V00
     K24F03Z  C2024 03 18.36799 10 40 25.85 +06 08 48.6          22.6 GVEG009V00
     K24F03Z* C2024 03 31.30752511 55 14.091+17 00 59.36         21.35wXEG009F52
     K24F03Z  C2024 03 31.32054211 55 21.425+17 01 55.98         21.12wXEG009F52
     K24F03Z  C2024 03 31.34673011 55 36.147+17 03 49.56         21.22wXEG009F52
     K24F03Z  C2024 03 31.53271611 57 21.486+17 16 58.16         21.15GVEG009F52
     K24F03Z  C2024 03 31.53336511 57 21.808+17 17 00.44         20.86GVEG009F52
     K24F03Z  C2024 04 02.47070912 19 04.106+19 40 09.95         20.78GVEG009F51
     K24F03Z KB2024 04 02.89613 12 24 26.13 +20 11 35.4                ZEG009185
     K24F03Z KB2024 04 02.91420 12 24 39.22 +20 12 58.9                ZEG009185
     K24F03Z KB2024 04 02.93258 12 24 52.51 +20 14 23.4                ZEG009185
     K24F03Z KC2024 04 02.94445812 25 00.55 +20 15 22.1          20.7 GVEG009L01
     K24F03Z KC2024 04 02.94742512 25 02.71 +20 15 35.8          21.0 GVEG009L01
     K24F03Z KC2024 04 02.95071212 25 05.12 +20 15 50.3          20.9 GVEG009L01
Observer details:
185 Observatoire Astronomique Jurassien-Vicques.  Observers D. Lachat, E. S.
    Lachat.  Measurer D. Lachat.  0.61-m f/3.2 reflector + CMO.
F51 Pan-STARRS 1, Haleakala.  Observers J. Herman, T. Lowe, P. Minguez, A.
    Schultz, I. Smith.  Measurers K. Chambers, T. de Boer, J. Fairlamb, H.
    Gao, M. Huber, C.-C. Lin, E. Magnier, Y. Ramanjooloo, R. Wainscoat, R.
    Weryk.  1.8-m Ritchey-Chretien + CCD.
F52 Pan-STARRS 2, Haleakala.  Observers J. Herman, T. Lowe, P. Minguez, A.
    Schultz, I. Smith.  Measurers K. Chambers, T. de Boer, J. Fairlamb, H.
    Gao, M. Huber, C.-C. Lin, E. Magnier, Y. Ramanjooloo, R. Wainscoat, R.
    Weryk.  1.8-m Ritchey-Chretien + CCD.
L01 Visnjan Observatory, Tican.  Observers K. Korlevic, L. Poropat.  Measurer
    K. Korlevic.  1.0-m f/2.9 reflector + CCD.
V00 Kitt Peak-Bok.  Observers V. F. Carvajal, H. Groeller.  Measurers B. Gray,
    D. Rankin, F. C. Shelly.  2.25-m reflector + mosaic CCD.
Orbital elements:
2024 FZ3                                                 Earth MOID = 0.0633 AU
Epoch 2024 Mar. 31.0 TT = JDT 2460400.5                 Bell                    
M 355.59607              (2000.0)            P               Q                  
n   0.22722980     Peri.   33.18512     -0.85384147     +0.52052317             
a   2.6596584      Node   178.17308     -0.49686958     -0.81316607             
e   0.6072573      Incl.    5.79705     -0.15516238     -0.26041615             
P   4.34           H   25.64          G   0.15           U   8                  
Residuals in seconds of arc
240318 V00  0.1-  0.1+    240331 F52  0.2+  0.3+    240402 185  0.9-  0.1+
240318 V00  0.1+  0.1-    240331 F52  0.6-  0.2-    240402 L01  0.3-  0.2+
240331 F52  0.2+  0.2+    240402 F51  0.4+  0.2-    240402 L01  0.2-  0.3+
240331 F52  0.2+  0.1+    240402 185  0.5+  0.6+    240402 L01  0.1+  0.2-
240331 F52  0.2+  0.1+    240402 185  0.0   0.4+
Ephemeris:
2024 FZ3                 a,e,i = 2.66, 0.61, 6                   q = 1.0446
Date    TT    R. A. (2000) Decl.     Delta      r    Elong.  Phase     V
2024 03 04    10 16 33.6 +01 02 53   0.2146  1.2024   168.0     9.9    23.3
...
2024 03 19    10 42 24.2 +06 30 22   0.1320  1.1212   161.0    16.8    22.4
...
2024 03 27    11 19 47.3 +12 25 59   0.09672 1.0882   158.1    20.0    21.7
...
2024 04 02    12 13 29.0 +19 04 45   0.07625 1.0690   154.7    23.5    21.3
2024 04 03    12 25 42.3 +20 20 22   0.07358 1.0663   153.7    24.5    21.3
2024 04 04    12 39 01.8 +21 36 45   0.07117 1.0638   152.5    25.7    21.2
...
2024 04 10    14 20 47.5 +28 00 22   0.06349 1.0518   140.7    37.1    21.3
...
2024 04 18    16 42 11.6 +27 43 55   0.07273 1.0447   122.3    54.4    22.0
...
2024 05 03    18 40 05.2 +18 32 01   0.1216  1.0596   112.0    61.9    23.4
M. P. C. Staff               (C) Copyright 2024 MPC           M.P.E.C. 2024-G09
    
    
More information about the Iaude
mailing list